Cameron, WI

2:53 AM CDT on July 24, 2016 (GMT -0500)
Rice Lake Regional-Carl's

Weather History for KRPD - October, 2013

Change the Weather History Date:

Saturday, October 12, 2013

  Actual Average Record
Temperature  
Mean Temperature 56 °F -  
Max Temperature 67 °F 56 °F 75 °F (1996)
Min Temperature 45 °F 36 °F 19 °F (2012)
Degree Days  
Heating Degree Days 9    
Growing Degree Days 6 (Base 50)    
Moisture  
Dew Point 42 °F    
Average Humidity 67    
Maximum Humidity 83    
Minimum Humidity 55    
Precipitation  
Precipitation 0.00 in - - ()
Sea Level Pressure  
Sea Level Pressure 29.93 in    
Wind  
Wind Speed 11 mph (SW)    
Max Wind Speed 17 mph    
Max Gust Speed 28 mph    
Visibility 10 miles    
Events      
Averages and records for this station are not official NWS values.
T = Trace of Precipitation, MM = Missing Value Source: NWS Daily Summary

Daily Weather History Graph

Daily Weather History Graph

Search for Another Location

Airport or City:

Trip Planner

Search our weather history database for the weather conditions in past years. The results will help you decide how hot, cold, wet, or windy it might be!

Date:

Astronomy

Oct. 12, 2013 Rise Set
Actual Time 7:19 AM CDT 6:26 PM CDT
Civil Twilight 6:49 AM CDT 6:56 PM CDT
Nautical Twilight 6:15 AM CDT 7:30 PM CDT
Astronomical Twilight 5:41 AM CDT 8:04 PM CDT
Moon 2:52 PM CDT (10/12) 12:05 AM CDT (10/12)
Length of Visible Light 12h 06m
Length of Day
11h 06m
First Quarter, 59% of the Moon is Illuminated
Oct 12
First Quarter
Oct 18
Full
Oct 26
Last Quarter
Nov 3
New
Nov 9
First Quarter

Hourly Weather History & Observations

Time (CDT) Temp. Windchill Dew Point Humidity Pressure Visibility Wind Dir Wind Speed Gust Speed Precip Events Conditions
12:15 AM 65.5 °F - 51.8 °F 61% 29.75 in 10.0 mi SE 11.5 mph - N/A   Overcast
12:35 AM 65.7 °F - 51.8 °F 61% 29.75 in 10.0 mi SE 11.5 mph - N/A   Overcast
12:55 AM 65.7 °F - 52.0 °F 61% 29.74 in 10.0 mi SE 11.5 mph - N/A   Overcast
1:15 AM 65.8 °F - 52.0 °F 61% 29.74 in 10.0 mi SE 11.5 mph 17.3 mph N/A   Overcast
1:35 AM 65.8 °F - 52.2 °F 61% 29.74 in 10.0 mi SSE 11.5 mph - N/A   Overcast
1:55 AM 66.6 °F - 52.7 °F 61% 29.74 in 10.0 mi SSE 9.2 mph - N/A   Overcast
2:15 AM 66.9 °F - 53.2 °F 61% 29.74 in 10.0 mi South 12.7 mph - N/A   Overcast
2:35 AM 67.3 °F - 53.8 °F 62% 29.75 in 10.0 mi SW 13.8 mph - N/A   Overcast
2:55 AM 64.4 °F - 52.0 °F 64% 29.75 in 10.0 mi SSW 13.8 mph 18.4 mph N/A   Overcast
3:15 AM 63.1 °F - 50.4 °F 63% 29.76 in 10.0 mi SW 12.7 mph 19.6 mph N/A   Overcast
6:15 AM 51.8 °F - 43.5 °F 73% 29.83 in 10.0 mi SSW 6.9 mph - N/A   Clear
6:35 AM 51.4 °F - 43.3 °F 74% 29.83 in 10.0 mi SSW 6.9 mph - N/A   Clear
6:55 AM 51.1 °F - 43.0 °F 74% 29.83 in 10.0 mi SSW 8.1 mph - N/A   Clear
7:15 AM 50.9 °F - 42.8 °F 74% 29.84 in 10.0 mi SSW 8.1 mph - N/A   Clear
7:35 AM 50.2 °F - 42.8 °F 76% 29.85 in 10.0 mi SSW 8.1 mph - N/A   Clear
7:55 AM 50.0 °F - 42.4 °F 75% 29.85 in 10.0 mi SSW 11.5 mph - N/A   Clear
8:15 AM 50.0 °F - 42.8 °F 76% 29.85 in 10.0 mi SSW 8.1 mph - N/A   Clear
8:35 AM 50.0 °F - 42.6 °F 76% 29.86 in 10.0 mi SSW 9.2 mph - N/A   Clear
8:55 AM 51.1 °F - 42.8 °F 73% 29.86 in 10.0 mi SSW 8.1 mph - N/A   Clear
9:15 AM 52.2 °F - 42.6 °F 70% 29.86 in 10.0 mi SSW 9.2 mph 18.4 mph N/A   Clear
9:35 AM 53.1 °F - 42.6 °F 68% 29.86 in 10.0 mi SSW 10.4 mph - N/A   Clear
9:55 AM 53.2 °F - 42.1 °F 66% 29.88 in 10.0 mi SW 12.7 mph 17.3 mph N/A   Scattered Clouds
10:15 AM 54.3 °F - 42.1 °F 63% 29.88 in 10.0 mi SW 13.8 mph 19.6 mph N/A   Mostly Cloudy
10:35 AM 52.9 °F - 41.2 °F 64% 29.89 in 10.0 mi SW 11.5 mph 17.3 mph N/A   Overcast
10:55 AM 54.9 °F - 41.2 °F 60% 29.89 in 10.0 mi SW 11.5 mph - N/A   Mostly Cloudy
11:15 AM 55.2 °F - 40.6 °F 58% 29.89 in 10.0 mi SW 10.4 mph 18.4 mph N/A   Mostly Cloudy
11:35 AM 56.5 °F - 41.9 °F 58% 29.89 in 10.0 mi SW 8.1 mph 17.3 mph N/A   Mostly Cloudy
11:55 AM 57.0 °F - 41.0 °F 55% 29.89 in 10.0 mi SW 11.5 mph 17.3 mph N/A   Overcast
12:15 PM 55.4 °F - 40.3 °F 57% 29.91 in 10.0 mi SW 16.1 mph 20.7 mph N/A   Overcast
12:35 PM 54.5 °F - 39.7 °F 57% 29.91 in 10.0 mi SW 12.7 mph 23.0 mph N/A   Overcast
12:55 PM 54.5 °F - 39.2 °F 56% 29.91 in 10.0 mi SSW 15.0 mph 20.7 mph N/A   Overcast
1:15 PM 54.0 °F - 39.4 °F 58% 29.92 in 10.0 mi SW 15.0 mph 19.6 mph N/A   Overcast
1:35 PM 54.5 °F - 39.4 °F 57% 29.92 in 10.0 mi SSW 15.0 mph 20.7 mph N/A   Overcast
1:55 PM 53.8 °F - 39.9 °F 59% 29.92 in 10.0 mi SW 9.2 mph 19.6 mph N/A   Overcast
2:15 PM 53.6 °F - 39.0 °F 58% 29.93 in 10.0 mi SW 17.3 mph 23.0 mph N/A   Overcast
2:35 PM 54.0 °F - 38.8 °F 57% 29.93 in 10.0 mi SW 12.7 mph 21.9 mph N/A   Overcast
2:55 PM 53.8 °F - 39.0 °F 57% 29.94 in 10.0 mi SW 13.8 mph 17.3 mph N/A   Overcast
3:15 PM 53.2 °F - 38.8 °F 58% 29.94 in 10.0 mi SW 15.0 mph 21.9 mph N/A   Overcast
3:35 PM 53.8 °F - 38.8 °F 57% 29.95 in 10.0 mi SW 17.3 mph 20.7 mph N/A   Overcast
3:55 PM 52.9 °F - 38.5 °F 58% 29.95 in 10.0 mi SW 11.5 mph 17.3 mph N/A   Overcast
4:15 PM 52.7 °F - 38.7 °F 59% 29.96 in 10.0 mi SW 12.7 mph 19.6 mph N/A   Overcast
4:35 PM 52.5 °F - 38.8 °F 60% 29.97 in 10.0 mi SW 11.5 mph - N/A   Overcast
4:55 PM 51.8 °F - 38.1 °F 60% 29.98 in 10.0 mi SW 16.1 mph 27.6 mph N/A   Overcast
5:15 PM 51.1 °F - 39.2 °F 64% 29.99 in 10.0 mi WSW 15.0 mph 20.7 mph N/A   Overcast
5:35 PM 50.7 °F - 39.2 °F 65% 30.01 in 10.0 mi SW 15.0 mph 23.0 mph N/A   Overcast
5:55 PM 48.9 °F - 39.6 °F 70% 30.02 in 10.0 mi WSW 16.1 mph 25.3 mph N/A   Light Drizzle
6:15 PM 48.6 °F - 39.6 °F 71% 30.02 in 10.0 mi WSW 8.1 mph 19.6 mph N/A   Overcast
6:35 PM 48.2 °F - 39.2 °F 71% 30.03 in 10.0 mi WSW 13.8 mph 19.6 mph N/A   Overcast
6:55 PM 48.2 °F - 39.2 °F 71% 30.04 in 10.0 mi WSW 13.8 mph - N/A   Overcast
7:15 PM 48.2 °F - 39.7 °F 73% 30.05 in 10.0 mi WSW 10.4 mph 18.4 mph N/A   Overcast
7:35 PM 48.2 °F - 40.3 °F 74% 30.06 in 10.0 mi WSW 11.5 mph 16.1 mph N/A   Overcast
7:55 PM 48.2 °F - 40.3 °F 74% 30.07 in 10.0 mi WSW 10.4 mph - N/A   Overcast
8:15 PM 48.0 °F - 40.3 °F 75% 30.07 in 10.0 mi WSW 9.2 mph 17.3 mph N/A   Overcast
8:35 PM 48.2 °F - 40.3 °F 74% 30.08 in 10.0 mi West 12.7 mph 20.7 mph N/A   Overcast
8:55 PM 48.0 °F - 40.3 °F 75% 30.09 in 10.0 mi West 11.5 mph 19.6 mph N/A   Overcast
9:15 PM 48.2 °F - 40.8 °F 76% 30.09 in 10.0 mi WSW 9.2 mph 16.1 mph N/A   Overcast
9:35 PM 48.2 °F - 41.0 °F 76% 30.10 in 10.0 mi WSW 9.2 mph 16.1 mph N/A   Overcast
9:55 PM 48.2 °F - 41.0 °F 76% 30.10 in 10.0 mi West 8.1 mph - N/A   Overcast
10:15 PM 48.2 °F - 41.0 °F 76% 30.11 in 10.0 mi West 10.4 mph 16.1 mph N/A   Overcast
10:35 PM 48.2 °F - 41.0 °F 76% 30.12 in 10.0 mi West 9.2 mph - N/A   Overcast
10:55 PM 48.0 °F - 41.0 °F 77% 30.12 in 10.0 mi West 8.1 mph 16.1 mph N/A   Overcast
11:15 PM 47.1 °F - 40.6 °F 78% 30.13 in 10.0 mi West 8.1 mph - N/A   Mostly Cloudy
11:35 PM 45.9 °F 42.3 °F 40.5 °F 81% 30.14 in 10.0 mi West 6.9 mph - N/A   Scattered Clouds
11:55 PM 45.1 °F 42.8 °F 40.3 °F 83% 30.14 in 10.0 mi West 4.6 mph - N/A   Clear